Date String (YYYY-MM-DD hh:mm:ss) UTC,Instrument flags,Ambient pressure (hPa),Sample flow (lpm),Bypass flow (lpm),Sample temperature (°C),Ambient temperature (°C),ASC tube jacket temperature (°C),LED temperature (°C),Box temperature (°C),Sample RH (%),Span deviation,Mass concentration (μg/m³),Mass concentration (μg/m³),Mass concentration (μg/m³)
DateTimeUTC,F1_M11,P_M11,Q1_M11,Q2_M11,T1_M11,T2_M11,T3_M11,T4_M11,T5_M11,U1_M11,ZSPAN_M11,X0_M11,X2_M11,X1_M11
2022-09-12 12:00:00,,0829.5,4.99,0.00,27.7,26.2,00.0,36.5,29.5,12.2,0002.4,0010.19,0007.56,0007.27
2022-09-12 12:01:00,,0829.5,5.01,0.00,27.7,26.2,00.0,36.5,29.5,12.2,0002.1,0010.52,0007.55,0007.28
2022-09-12 12:02:00,,0829.5,5.01,0.00,27.7,26.2,00.0,36.5,29.5,12.1,0002.4,0011.31,0007.61,0007.32
2022-09-12 12:03:00,,0829.5,4.98,0.00,27.7,26.2,00.0,36.5,29.5,12.1,0002.8,0011.39,0007.66,0007.35
2022-09-12 12:04:00,,0829.5,5.01,0.00,27.7,26.2,00.0,36.5,29.5,12.1,0003.2,0011.57,0007.70,0007.36
2022-09-12 12:05:00,,0829.5,4.99,0.00,27.7,26.2,00.0,36.5,29.5,12.1,0003.0,0011.57,0007.73,0007.38
2022-09-12 12:06:00,,0829.5,5.01,0.00,27.7,26.2,00.0,36.5,29.5,11.8,0003.0,0011.88,0007.77,0007.40
2022-09-12 12:07:00,,0829.5,4.98,0.00,27.7,26.1,00.0,36.5,29.5,11.9,0002.8,0012.58,0007.80,0007.43
2022-09-12 12:08:00,,0829.5,5.01,0.00,27.6,26.0,00.0,36.5,29.4,11.7,0002.4,0012.99,0007.80,0007.45
2022-09-12 12:09:00,,0829.5,5.00,0.00,27.6,26.0,00.0,36.5,29.4,11.7,0003.0,0013.03,0007.83,0007.48
2022-09-12 12:10:00,,0829.5,4.99,0.00,27.6,26.0,00.0,36.4,29.4,11.7,0003.1,0013.05,0007.86,0007.53
2022-09-12 12:11:00,,0829.5,5.00,0.00,27.6,26.0,00.0,36.4,29.4,11.6,0003.1,0013.29,0007.89,0007.57
2022-09-12 12:12:00,,0829.5,5.01,0.00,27.6,26.1,00.0,36.4,29.4,12.0,0003.3,0012.89,0007.89,0007.57
2022-09-12 12:13:00,,0829.4,4.99,0.00,27.6,26.2,00.0,36.4,29.4,13.1,0002.9,0012.10,0007.85,0007.55
2022-09-12 12:14:00,,0829.5,5.01,0.00,27.6,26.2,00.0,36.4,29.4,12.5,0002.8,0012.02,0007.83,0007.55
2022-09-12 12:15:00,,0829.4,4.99,0.00,27.6,26.2,00.0,36.4,29.4,12.3,0002.4,0011.89,0007.81,0007.58
2022-09-12 12:16:00,,0829.4,5.02,0.00,27.6,26.1,00.0,36.4,29.4,12.1,0002.4,0011.93,0007.84,0007.59
2022-09-12 12:17:00,,0829.5,4.99,0.00,27.6,26.0,00.0,36.4,29.3,11.9,0002.0,0011.62,0007.84,0007.59
2022-09-12 12:18:00,,0829.5,5.01,0.00,27.6,26.0,00.0,36.4,29.3,11.9,0001.7,0011.10,0007.86,0007.58
2022-09-12 12:19:00,,0829.5,4.99,0.00,27.6,26.0,00.0,36.4,29.3,12.0,0002.0,0010.73,0007.88,0007.58
2022-09-12 12:20:00,,0829.5,5.00,0.00,27.5,26.0,00.0,36.4,29.3,11.9,0001.7,0010.78,0007.91,0007.60
2022-09-12 12:21:00,,0829.5,5.01,0.00,27.5,25.9,00.0,36.4,29.3,11.8,0001.5,0010.91,0007.94,0007.60
2022-09-12 12:22:00,,0829.4,4.99,0.00,27.5,26.0,00.0,36.4,29.3,11.7,0001.9,0010.69,0007.96,0007.61
2022-09-12 12:23:00,,0829.5,5.01,0.00,27.5,26.0,00.0,36.4,29.4,11.9,0001.9,0010.74,0007.99,0007.64
2022-09-12 12:24:00,,0829.5,4.98,0.00,27.5,25.9,00.0,36.4,29.3,11.9,0001.8,0010.91,0008.08,0007.70
2022-09-12 12:25:00,,0829.4,5.00,0.00,27.5,26.0,00.0,36.4,29.3,11.7,0001.7,0011.04,0008.14,0007.75
2022-09-12 12:26:00,,0829.5,5.00,0.00,27.5,26.0,00.0,36.4,29.3,11.5,0001.5,0011.17,0008.20,0007.79
2022-09-12 12:27:00,,0829.5,5.00,0.00,27.5,26.0,00.0,36.4,29.4,11.5,0001.7,0011.42,0008.23,0007.83
2022-09-12 12:28:00,,0829.5,5.01,0.00,27.5,26.0,00.0,36.4,29.4,11.5,0001.8,0011.61,0008.30,0007.88
2022-09-12 12:29:00,,0829.5,4.99,0.00,27.6,26.1,00.0,36.4,29.4,11.5,0001.8,0011.60,0008.33,0007.93
2022-09-12 12:30:00,,0829.5,5.01,0.00,27.6,26.1,00.0,36.4,29.4,11.6,0001.4,0011.64,0008.35,0007.96
2022-09-12 12:31:00,,0829.6,4.99,0.00,27.6,26.1,00.0,36.4,29.4,11.8,0001.6,0011.69,0008.37,0007.98
2022-09-12 12:32:00,,0829.6,5.01,0.00,27.6,26.1,00.0,36.4,29.4,12.2,0001.3,0011.74,0008.39,0008.00
2022-09-12 12:33:00,,0829.6,5.00,0.00,27.6,26.1,00.0,36.4,29.4,12.1,0000.9,0011.73,0008.42,0008.05
2022-09-12 12:34:00,,0829.6,5.01,0.00,27.6,26.1,00.0,36.4,29.4,11.6,0000.8,0011.83,0008.47,0008.08
2022-09-12 12:35:00,,0829.6,5.01,0.00,27.6,26.1,00.0,36.4,29.4,11.5,0000.9,0011.81,0008.49,0008.09
2022-09-12 12:36:00,,0829.6,4.99,0.00,27.6,26.1,00.0,36.4,29.4,11.5,0000.8,0011.77,0008.51,0008.11
2022-09-12 12:37:00,,0829.6,5.01,0.00,27.6,26.1,00.0,36.4,29.4,11.1,0000.6,0011.76,0008.51,0008.12
2022-09-12 12:38:00,,0829.6,4.99,0.00,27.6,26.2,00.0,36.4,29.4,11.0,0000.5,0011.55,0008.51,0008.11
2022-09-12 12:39:00,,0829.5,5.01,0.00,27.6,26.2,00.0,36.4,29.5,11.4,0001.1,0011.43,0008.51,0008.12
2022-09-12 12:40:00,,0829.5,4.98,0.00,27.6,26.2,00.0,36.4,29.5,11.4,0001.6,0011.42,0008.53,0008.14
2022-09-12 12:41:00,,0829.5,5.01,0.00,27.6,26.2,00.0,36.4,29.5,11.7,0002.1,0011.44,0008.53,0008.15
2022-09-12 12:42:00,,0829.5,4.99,0.00,27.6,26.1,00.0,36.4,29.5,11.9,0002.1,0011.49,0008.55,0008.17
2022-09-12 12:43:00,,0829.6,5.01,0.00,27.6,26.1,00.0,36.4,29.4,11.7,0002.0,0011.45,0008.55,0008.18
2022-09-12 12:44:00,,0829.5,5.01,0.00,27.6,26.1,00.0,36.4,29.4,11.6,0002.2,0011.58,0008.56,0008.16
2022-09-12 12:45:00,,0829.5,4.99,0.00,27.6,26.0,00.0,36.4,29.4,11.3,0002.0,0011.66,0008.59,0008.19
2022-09-12 12:46:00,,0829.6,5.01,0.00,27.6,26.1,00.0,36.4,29.4,11.5,0002.2,0011.77,0008.61,0008.21
2022-09-12 12:47:00,,0829.6,4.99,0.00,27.6,26.1,00.0,36.4,29.4,11.4,0002.4,0011.89,0008.64,0008.22
2022-09-12 12:48:00,,0829.5,5.01,0.00,27.6,26.1,00.0,36.4,29.4,11.8,0002.9,0011.82,0008.61,0008.19
2022-09-12 12:49:00,,0829.5,4.99,0.00,27.6,26.1,00.0,36.4,29.4,12.0,0003.1,0011.83,0008.60,0008.17
2022-09-12 12:50:00,,0829.6,5.01,0.00,27.6,26.1,00.0,36.4,29.4,12.7,0002.6,0011.79,0008.53,0008.10
2022-09-12 12:51:00,,0829.5,5.01,0.00,27.6,26.1,00.0,36.4,29.4,12.7,0002.7,0011.69,0008.43,0008.01
2022-09-12 12:52:00,,0829.5,4.99,0.00,27.6,26.2,00.0,36.4,29.4,13.1,0002.9,0011.52,0008.37,0007.94
2022-09-12 12:53:00,,0829.6,5.01,0.00,27.6,26.2,00.0,36.4,29.4,13.7,0002.5,0011.36,0008.32,0007.88
2022-09-12 12:54:00,,0829.5,4.99,0.00,27.6,26.2,00.0,36.4,29.4,13.3,0002.8,0011.25,0008.25,0007.80
2022-09-12 12:55:00,,0829.6,5.01,0.00,27.6,26.2,00.0,36.4,29.4,13.5,0002.3,0010.98,0008.15,0007.74
2022-09-12 12:56:00,,0829.6,4.99,0.00,27.6,26.2,00.0,36.4,29.4,13.7,0002.4,0010.82,0008.10,0007.68
2022-09-12 12:57:00,,0829.6,5.01,0.00,27.6,26.2,00.0,36.4,29.4,14.5,0002.0,0010.65,0008.03,0007.63
2022-09-12 12:58:00,,0829.6,4.99,0.00,27.6,26.2,00.0,36.4,29.5,14.5,0001.7,0010.42,0007.94,0007.58
2022-09-12 12:59:00,,0829.6,5.01,0.00,27.6,26.2,00.0,36.4,29.5,14.5,0001.3,0010.33,0007.91,0007.56
